Regional Weather Roundup
Issued by NWS

Home | Current Version | Previous Version | Graphics & Text | Print | Product List | Glossary On
Versions: 1 2 3 4 5 6 7 8 9 10 11 12 13 14 15 16 17 18 19 20 21 22 23 24 25 26 27 28 29 30 31 32 33 34 35 36 37 38 39 40 41 42 43 44 45 46 47 48 49 50
000
ASUS45 KBOU 281207
RWRCO

WEATHER ROUNDUP FOR COLORADO
NATIONAL WEATHER SERVICE DENVER/BOULDER CO
600 AM MDT MON JUL 28 2014

NOTE: "FAIR" INDICATES FEW OR NO CLOUDS BELOW 12000 FEET WITH NO
SIGNIFICANT WEATHER AND/OR OBSTRUCTIONS TO VISIBILITY.

COZ001>005-013-030-031-281300-
...NORTHWEST COLORADO...

CITY           SKY/WX    TMP DP  RH WIND       PRES   REMARKS
CRAIG          PTCLDY    44  44 100 CALM      30.38R
HAYDEN         NOT AVBL
MEEKER         PTCLDY    59  47  64 NE6       30.39R
MOUNT WERNER   NOT AVBL
STEAMBOAT SPGS PTCLDY    53  46  76 CALM      30.42S
WALDEN         CLEAR     41  37  87 SE7       30.52R
$$

COZ006>008-011-281300-
...WEST CENTRAL VALLEYS...

CITY           SKY/WX    TMP DP  RH WIND       PRES   REMARKS
GRAND JUNCTION MOCLDY    68  48  48 CALM      30.30R
MONTROSE       CLOUDY    66  52  60 S9        30.39R
EAGLE          CLOUDY    55  48  76 E5        30.46R
RIFLE          CLOUDY    64  48  56 CALM      30.35R
DELTA          CLOUDY    69  56  63 N5        30.34S
NUCLA          CLOUDY    64  52  63 E7        30.44S
$$

COZ017>023-064>068-281300-
...SOUTHWEST COLORADO...

CITY           SKY/WX    TMP DP  RH WIND       PRES   REMARKS
DURANGO        MOCLDY    59  57  93 CALM      30.45F
CORTEZ         MOCLDY    64  59  83 CALM      30.38F
PAGOSA SPRINGS MOCLDY    57  54  89 CALM      30.55S
TELLURIDE      NOT AVBL
WOLF CREEK PAS NOT AVBL
$$

COZ009-010-012-014-032>034-037-058>063-281300-
...CENTRAL COLORADO...

CITY           SKY/WX    TMP DP  RH WIND       PRES   REMARKS
ASPEN          PTCLDY    50  44  80 CALM      30.50R
BUENA VISTA    CLOUDY    56  52  85 NW5       30.54F
COPPER MTN     PTCLDY    54  39  58 S9        30.80S
BERTHOUD PASS  FAIR      46  32  57 NW5       30.84S
COTTONWOOD PAS CLOUDY    54  50  87 W6        30.66S
GUNNISON       CLOUDY    55  48  76 SW5       30.54R
KREMMLING      PTCLDY    52  45  76 CALM      30.49S
LEADVILLE      CLOUDY    49  45  86 NE5       30.66S
MONARCH PASS   CLOUDY    45  43  93 SW12      30.89F
SALIDA         MOCLDY   N/A N/A N/A CALM      30.59F
SUNLIGHT       CLOUDY    54  45  71 CALM      30.73S
WILKERSON PASS NOT AVBL
$$

COZ069>075-281300-
...SAN LUIS VALLEY/SANGRE DE CRISTO MOUNTAINS...

CITY           SKY/WX    TMP DP  RH WIND       PRES   REMARKS
ALAMOSA        CLOUDY    56  53  90 E6        30.51S
LA VETA PASS   CLOUDY    46  45  93 SW14G21   30.64R
SAGUACHE       DRIZZLE   55  54  94 SE7       30.57R
$$

COZ035-036-038>040-281300-
...NORTHERN COLORADO FRONT RANGE...

CITY           SKY/WX    TMP DP  RH WIND       PRES   REMARKS
DENVER INTL AP PTCLDY    61  54  77 S5        30.33F
DMNS CITY PARK   N/A     62  56  81 W3        30.34S
AURORA         MOCLDY    60  54  79 SW6       30.36S
FRONT RANGE AP NOT AVBL
ERIE MUNI ARPT PTCLDY    62  59  91 CALM      30.33S
BOULDER MUN AP PTCLDY    63  55  77 SW3       30.34S
CENTENNIAL     PTCLDY    60  52  74 SW6       30.37R
BROOMFIELD     PTCLDY    63  57  82 N7        30.36S
FORT COLLINS   PTCLDY    61  57  88 N9        30.34S
LONGMONT       PTCLDY    64  59  85 CALM      30.34S
$$

COZ041-046-047-076>085-087-088-281300-
...PIKES PEAK/PALMER DIVIDE AND SOUTHERN FOOTHILLS...

CITY           SKY/WX    TMP DP  RH WIND       PRES   REMARKS
COLO. SPRINGS  MOCLDY    58  55  90 CALM      30.42F
A. F. ACADEMY  CLEAR     54  54 100 N5        30.43F
ELLICOTT       CLEAR     57  57 100 SE6       30.41F
FALCON         PTCLDY    55  54  99 CALM      30.46S FOG
FORT CARSON    MOCLDY    57  57 100 N3        30.39F
LIMON          MOCLDY    57  56  96 S5        30.39S
MONUMENT HILL  CLEAR     54  52  94 S8        30.44S
TRINIDAD       CLOUDY    63  59  87 CALM      30.37F
$$

COZ042>045-048>051-090-091-281300-
...NORTHEAST COLORADO...

CITY           SKY/WX    TMP DP  RH WIND       PRES   REMARKS
GREELEY ARPT   PTCLDY    57  50  77 CALM      30.32S
AKRON          PTCLDY    62  54  74 S5        30.34S
BURLINGTON     CLOUDY    67  58  72 S3        30.34F
WRAY             N/A     60  49  67 E3        30.31F
STERLING       PTCLDY    61  55  82 NE5       30.30S
HOLYOKE        PTCLDY    59  54  82 SE6       30.32F
FORT MORGAN    PTCLDY    62  57  84 SE6       30.32S
$$

COZ086-089-092>099-281300-
...SOUTHEAST COLORADO...

CITY           SKY/WX    TMP DP  RH WIND       PRES   REMARKS
PUEBLO         MOCLDY    64  64 100 E3        30.33F
LA JUNTA       CLOUDY    68  66  93 E8        30.32S
LAMAR          CLOUDY    68  62  81 S3        30.30F
SPRINGFIELD      N/A     61  61 100 SE8       30.34F
$$


USA.gov is the U.S. government's official web portal to all federal, state and local government web resources and services.